Погода в Ленинке

Россия / Тюменская область     56°03′11″N   70°24′58″E
темп.,
°C
ветер,
м/с
пор.,
м/с
влажн.,
%
обл.,
%
осадки,
мм/ч
давл.,
гПа
погр.,
м
24 мая, вт
вт2423:00+14ююз91785100 0.1 1010556
02:00+12ююз4119336 0.2 1012210
05:00+12ю6148494 0.3 1012268
08:00+17ююз6126758 0.6 1014604
11:00+21ю7105363 0.7 1014817
14:00+24ю6104291 0.0 10141917
17:00+25ююз484217 0.0 10131773
20:00+20ю3359100 0.0 101519
25 мая, ср
ср2523:00+17ююв45595 0.0 101550
02:00+16юв46597 0.0 101569
05:00+15ююв47635 0.0 101692
08:00+20ююв595696 0.0 1016304
11:00+25ююв4643100 0.0 1016751
14:00+26юв5737100 0.0 10152247
17:00+26вюв4643100 0.0 10151113
20:00+20в41066100 0.0 1014174
26 мая, чт
чт2623:00+19юв5156194 0.0 1013298
02:00+16юв414605 0.0 1013249
05:00+16юв513685 0.0 1013213
08:00+21юв613570 0.0 1012509
11:00+25юв810431 0.0 10111359
14:00+27юв710360 0.0 10092015
17:00+26вюв811430 0.0 10071004
20:00+21вюв7175411 0.0 1005417
27 мая, пт
пт2723:00+20юв71653100 0.1 1003465
02:00+18юв61565100 0.8 1002433
05:00+14ю61087100 1.1 1003597
08:00+14ююз5790100 0.1 1004586
11:00+11з81390100 0.6 1007639
14:00+13зсз91177100 0.0 1010993
17:00+15сз6106697 0.1 10111311
20:00+13зсз510686 0.0 1013289
28 мая, сб
сб2823:00+10зсз4117626 0.0 1014230
02:00+8з37845 0.0 1015115
05:00+8зсз37842 0.0 1015147
08:00+14зсз456321 0.0 1015489
11:00+18зсз444859 0.0 10151508
14:00+19зсз444545 0.0 10141763
17:00+19сз454795 0.0 10141889
20:00+15сз226758 0.0 101520